{"data":{"norad_id":66008,"intl_designator":"2025-232D","name":"STARLINK-35236","alt_names":[],"object_type":"PAYLOAD","status":"ACTIVE","operator":null,"country":"US","launch_date":"2025-10-16","launch_site_code":"AFETR","launch_vehicle":null,"mission":null,"orbit_class":"UNKNOWN","rcs_meters":null,"size_class":null,"mass_kg":null,"dimensions":null,"purposes":["comms"],"wikipedia_slug":null,"has_3d_model":false,"image_url":null,"decayed_at":null,"tle_current":{"epoch":"2026-09-20T06:20:00.550464Z","epoch_age_seconds":123539,"freshness":"FRESH","line1":"1 66008U 25232D   26263.26389526  .00012152  00000+0  37014-3 0  9992","line2":"2 66008  53.1569 276.7350 0001229  85.2917 274.8226 15.34405811 53255","mean_motion":15.34405811,"eccentricity":0.0001229,"inclination_deg":53.1569,"raan_deg":276.735,"arg_perigee_deg":85.2917,"mean_anomaly_deg":274.8226,"bstar":0.00037014,"rev_number":5325,"period_min":93.847402667325,"perigee_km":461.84523160214,"apogee_km":463.52670588786,"semimajor_km":6840.822968745,"source":"CELESTRAK","updated_at":"2026-09-21T09:00:35.768721Z"}}}